Valladolid Airport, Spain

2:02 PM CET on February 07, 2016 (GMT +0100)
Villanubla

Weather History for LEVD - May, 2014

Change the Weather History Date:

Sunday, May 11, 2014

  Actual Average Record
Temperature  
Mean Temperature 60 °F -  
Max Temperature 71 °F - - ()
Min Temperature 49 °F - - ()
Degree Days  
Heating Degree Days 5    
Growing Degree Days 10 (Base 50)    
Moisture  
Dew Point 36 °F    
Average Humidity 44    
Maximum Humidity 100    
Minimum Humidity 7    
Precipitation  
Precipitation 0.00 in - - ()
Sea Level Pressure  
Sea Level Pressure 30.12 in    
Wind  
Wind Speed 5 mph ()    
Max Wind Speed 14 mph    
Max Gust Speed 21 mph    
Visibility 9.4 miles    
Events Fog    
T = Trace of Precipitation, MM = Missing Value Source: Averaged Metar Reports

Daily Weather History Graph

Daily Weather History Graph

Search for Another Location

Airport or City:

Trip Planner

Search our weather history database for the weather conditions in past years. The results will help you decide how hot, cold, wet, or windy it might be!

Date:

Astronomy

May. 11, 2014 Rise Set
Actual Time 7:04 AM CEST 9:28 PM CEST
Civil Twilight 6:32 AM CEST 9:59 PM CEST
Nautical Twilight 5:54 AM CEST 10:38 PM CEST
Astronomical Twilight 5:10 AM CEST 11:21 PM CEST
Moon 6:06 PM CEST (5/11) 5:04 AM CEST (5/11)
Length of Visible Light 15h 26m
Length of Day
14h 23m
Waxing Gibbous, 87% of the Moon is Illuminated
May 11
Waxing Gibbous
May 14
Full
May 21
Last Quarter
May 28
New
Jun 5
First Quarter

Hourly Weather History & Observations

Time (CEST) Temp. Dew Point Humidity Pressure Visibility Wind Dir Wind Speed Gust Speed Precip Events Conditions
7:00 AM 50.0 °F 50.0 °F 100% 30.12 in 0.5 mi West 2.3 mph - N/A Fog Fog
7:30 AM 50.0 °F 48.2 °F 94% 30.12 in 0.5 mi NW 2.3 mph - N/A Fog Fog
8:00 AM 50 °F 49 °F 93%  in 9 mi Calm Calm - -   Scattered Clouds
8:00 AM 50.0 °F 48.2 °F 94% 30.12 in - Calm Calm - N/A   Clear
8:30 AM 51.8 °F 50.0 °F 94% 30.12 in - Calm Calm - N/A   Clear
9:00 AM 53.6 °F 51.8 °F 94% 30.15 in - NW 2.3 mph - N/A   Clear
9:30 AM 57.2 °F 50.0 °F 77% 30.15 in - NW 5.8 mph - N/A   Clear
10:00 AM 59.0 °F 50.0 °F 72% 30.15 in - NNW 8.1 mph - N/A   Clear
10:30 AM 59.0 °F 48.2 °F 67% 30.15 in - NNW 12.7 mph - N/A   Clear
11:00 AM 61 °F 47 °F 51%  in 12 mi NW 13.8 mph - -   Scattered Clouds
11:00 AM 60.8 °F 48.2 °F 63% 30.15 in - NW 13.8 mph - N/A   Clear
11:30 AM 62.6 °F 46.4 °F 55% 30.18 in 6.2 mi NW 13.8 mph - N/A   Partly Cloudy
12:00 PM 62.6 °F 44.6 °F 52% 30.15 in 6.2 mi NW 9.2 mph - N/A   Partly Cloudy
12:30 PM 64.4 °F 42.8 °F 45% 30.15 in 6.2 mi WNW 9.2 mph - N/A   Partly Cloudy
1:00 PM 64.4 °F 42.8 °F 45% 30.15 in 6.2 mi WNW 8.1 mph - N/A   Partly Cloudy
1:30 PM 66.2 °F 41.0 °F 40% 30.15 in - WNW 6.9 mph - N/A   Clear
2:00 PM 66 °F 38 °F 25%  in 19 mi WNW 8.1 mph - -   Scattered Clouds
2:00 PM 66.2 °F 39.2 °F 37% 30.15 in - WNW 8.1 mph - N/A   Clear
2:30 PM 68.0 °F 33.8 °F 28% 30.12 in - WNW 8.1 mph 20.7 mph N/A   Clear
3:00 PM 69.8 °F 32.0 °F 25% 30.12 in - NW 8.1 mph - N/A   Clear
3:30 PM 69.8 °F 23.0 °F 17% 30.12 in - WNW 8.1 mph - N/A   Clear
4:30 PM 69.8 °F 19.4 °F 15% 30.12 in - WNW 8.1 mph - N/A   Clear
5:00 PM 70 °F 20 °F 7%  in 19 mi NW 6.9 mph - -   Overcast
5:00 PM 69.8 °F 24.8 °F 18% 30.09 in - NW 6.9 mph - N/A   Clear
5:30 PM 71.6 °F 21.2 °F 15% 30.09 in - NW 9.2 mph - N/A   Clear
6:00 PM 69.8 °F 21.2 °F 16% 30.09 in - NNW 12.7 mph - N/A   Clear
6:30 PM 71.6 °F 19.4 °F 14% 30.09 in - NNW 10.4 mph - N/A   Clear
7:00 PM 69.8 °F 21.2 °F 16% 30.09 in - North 9.2 mph - N/A   Clear
7:30 PM 69.8 °F 24.8 °F 18% 30.06 in - NNW 8.1 mph - N/A   Clear
8:00 PM 70 °F 27 °F 11%  in 19 mi NW 5.8 mph - -   Clear
8:00 PM 69.8 °F 26.6 °F 20% 30.06 in - NW 5.8 mph - N/A   Clear
8:30 PM 68.0 °F 28.4 °F 23% 30.06 in - NW 3.5 mph - N/A   Clear
9:00 PM 68.0 °F 30.2 °F 24% 30.06 in - Calm Calm - N/A   Clear
9:30 PM 66.2 °F 30.2 °F 26% 30.06 in - Calm Calm - N/A   Clear